EW8215 Weather Reports


Display with metric or nautical units.
time (UTC)temp
F
wind
direction
speed
MPH
gust
MPH
rain 1hr
in
rain 24hr
in
rain mn
in
humidity
%
barometer
mb
20260508135041 64 152 1.0 2.0 0.00 0.00 0.00 86 1014.2
20260508134538 64 137 4.0 5.0 0.00 0.00 0.00 87 1014.3
20260508134035 64 97 3.0 3.0 0.00 0.00 0.00 87 1014.3
20260508133532 64 135 3.0 3.0 0.00 0.00 0.00 88 1014.3
20260508133029 64 120 2.0 3.0 0.00 0.00 0.00 89 1014.2
20260508132527 63 143 1.0 2.0 0.00 0.00 0.00 90 1014.4
20260508132023 62 148 0.0 0.0 0.00 0.00 0.00 91 1014.4
20260508131518 62 141 3.0 3.0 0.00 0.00 0.00 91 1014.4
20260508131015 62 127 2.0 3.0 0.00 0.00 0.00 91 1014.4
20260508130513 62 121 2.0 3.0 0.00 0.00 0.00 91 1014.6
20260508130009 61 156 2.0 5.0 0.00 0.00 0.00 92 1014.4
20260508125505 61 163 2.0 2.0 0.00 0.00 0.00 92 1014.5
20260508125003 61 141 2.0 2.0 0.00 0.00 0.00 92 1014.5
20260508124500 61 139 2.0 2.0 0.00 0.00 0.00 92 1014.6
20260508123957 61 163 2.0 3.0 0.00 0.00 0.00 93 1014.7
20260508123456 61 153 0.0 0.0 0.00 0.00 0.00 93 1014.6
20260508122952 61 159 2.0 2.0 0.00 0.00 0.00 93 1014.8
20260508122449 61 160 1.0 2.0 0.00 0.00 0.00 93 1014.6
20260508121946 61 158 2.0 2.0 0.00 0.00 0.00 93 1014.4
20260508121444 61 146 2.0 2.0 0.00 0.00 0.00 93 1014.6
20260508120942 60 170 1.0 2.0 0.00 0.00 0.00 93 1014.6
20260508120439 61 158 0.0 0.0 0.00 0.00 0.00 94 1015.0
20260508115937 60 148 0.0 0.0 0.00 0.00 0.00 93 1014.8
20260508115435 60 147 0.0 0.0 0.00 0.00 0.00 93 1014.9
20260508114931 60 161 0.0 0.0 0.00 0.00 0.00 93 1015.1
20260508114428 60 161 0.0 0.0 0.00 0.00 0.00 93 1015.0
20260508113924 60 148 0.0 0.0 0.00 0.00 0.00 93 1014.9
20260508113422 60 150 0.0 0.0 0.00 0.00 0.00 93 1014.9
20260508112919 60 150 0.0 0.0 0.00 0.00 0.00 93 1014.9
20260508112416 60 143 0.0 0.0 0.00 0.00 0.00 93 1015.0
20260508111913 60 133 0.0 0.0 0.00 0.00 0.00 93 1014.8
20260508111410 60 133 0.0 0.0 0.00 0.00 0.00 93 1014.8
20260508110907 60 140 0.0 0.0 0.00 0.00 0.00 93 1015.0
20260508110405 60 142 1.0 2.0 0.00 0.00 0.00 93 1014.8
20260508105904 60 88 2.0 2.0 0.00 0.00 0.00 93 1014.8
20260508105400 60 139 0.0 0.0 0.00 0.00 0.00 93 1015.0
20260508104858 60 150 0.0 0.0 0.00 0.00 0.00 92 1015.2
20260508104355 60 143 1.0 2.0 0.00 0.00 0.00 92 1015.2
20260508103852 60 149 0.0 0.0 0.00 0.00 0.00 92 1015.3
20260508103349 60 143 0.0 0.0 0.00 0.00 0.00 92 1015.3
20260508102846 61 161 0.0 0.0 0.00 0.00 0.00 91 1015.5
20260508102344 61 146 0.0 2.0 0.00 0.00 0.00 91 1015.5
20260508101841 61 144 1.0 2.0 0.00 0.00 0.00 91 1015.6
20260508101339 61 109 3.0 5.0 0.00 0.00 0.00 90 1015.4
20260508100836 61 154 0.0 0.0 0.00 0.00 0.00 89 1015.5
20260508100335 61 149 1.0 2.0 0.00 0.00 0.00 89 1015.6
20260508095830 61 143 1.0 2.0 0.00 0.00 0.00 90 1015.5
20260508095328 61 305 4.0 5.0 0.00 0.00 0.00 90 1015.7
20260508094825 61 88 3.0 3.0 0.00 0.00 0.00 90 1015.7
20260508094322 61 202 4.0 5.0 0.00 0.00 0.00 90 1015.6
20260508093819 61 139 2.0 2.0 0.00 0.00 0.00 89 1015.4
20260508093316 61 113 3.0 3.0 0.00 0.00 0.00 89 1015.3
20260508092813 61 129 3.0 3.0 0.00 0.00 0.00 89 1015.2
20260508092313 61 137 0.0 0.0 0.00 0.00 0.00 89 1015.1
20260508091809 61 142 0.0 0.0 0.00 0.00 0.00 89 1015.2
20260508091305 61 142 0.0 0.0 0.00 0.00 0.00 89 1015.2
20260508090803 61 145 0.0 0.0 0.00 0.00 0.00 89 1015.2
20260508090302 61 145 0.0 0.0 0.00 0.00 0.00 89 1015.2
20260508085757 61 145 0.0 0.0 0.00 0.00 0.00 88 1014.8
20260508085254 61 147 0.0 0.0 0.00 0.00 0.00 88 1014.8
20260508084749 61 144 0.0 0.0 0.00 0.00 0.00 88 1014.7
20260508084248 61 146 0.0 0.0 0.00 0.00 0.00 89 1014.6
20260508083745 61 76 0.0 0.0 0.00 0.00 0.00 88 1014.5
20260508083242 60 144 0.0 0.0 0.00 0.00 0.00 89 1014.7
20260508082736 60 147 0.0 0.0 0.00 0.00 0.00 89 1014.5
20260508082235 60 149 0.0 0.0 0.00 0.00 0.00 89 1014.4
20260508081732 60 96 0.0 0.0 0.00 0.00 0.00 89 1014.5
20260508081229 60 148 0.0 0.0 0.00 0.00 0.00 89 1014.4
20260508080726 60 127 0.0 0.0 0.00 0.00 0.00 90 1014.4
20260508080224 59 143 0.0 0.0 0.00 0.00 0.00 93 1014.7
20260508075720 59 145 0.0 0.0 0.00 0.00 0.00 95 1014.9
20260508075217 59 147 0.0 0.0 0.00 0.00 0.00 95 1014.9
20260508074714 59 151 0.0 0.0 0.00 0.00 0.00 96 1014.9
20260508074212 59 151 0.0 0.0 0.00 0.00 0.00 96 1015.0
20260508073708 59 151 0.0 0.0 0.00 0.00 0.00 96 1015.1
20260508073207 59 151 0.0 0.0 0.00 0.00 0.00 96 1015.2
20260508072702 58 150 0.0 0.0 0.00 0.00 0.00 96 1015.2
20260508072159 58 147 0.0 0.0 0.00 0.00 0.00 96 1015.3
20260508071657 58 163 0.0 0.0 0.00 0.00 0.00 96 1015.5
20260508071155 58 129 0.0 0.0 0.00 0.00 0.00 96 1015.7
20260508070652 58 121 0.0 0.0 0.00 0.00 0.00 96 1015.6
20260508070151 58 155 0.0 0.0 0.00 0.00 0.00 96 1015.5
20260508065647 58 155 0.0 0.0 0.00 0.00 0.00 96 1015.5
20260508065145 57 154 0.0 0.0 0.00 0.00 0.00 96 1015.6
20260508064643 57 156 0.0 0.0 0.00 0.00 0.00 96 1015.7
20260508064141 57 156 0.0 0.0 0.00 0.00 0.00 96 1015.7
20260508063638 57 156 0.0 0.0 0.00 0.00 0.00 96 1015.8
20260508063136 57 156 0.0 0.0 0.00 0.00 0.00 95 1016.1
20260508062633 57 156 0.0 0.0 0.00 0.00 0.00 95 1015.9
20260508062129 58 160 0.0 0.0 0.00 0.00 0.00 95 1016.0
20260508061627 58 184 0.0 0.0 0.00 0.00 0.00 95 1015.8
20260508061124 58 159 0.0 0.0 0.00 0.00 0.00 95 1015.6
20260508060621 58 160 0.0 0.0 0.00 0.00 0.00 95 1015.7
20260508060118 58 155 0.0 0.0 0.00 0.00 0.00 95 1015.6
20260508055613 58 132 0.0 0.0 0.00 0.00 0.00 95 1015.5
20260508055111 58 156 0.0 0.0 0.00 0.00 0.00 95 1015.6
20260508054607 58 139 0.0 0.0 0.00 0.00 0.00 95 1015.4
20260508054104 58 145 0.0 0.0 0.00 0.00 0.00 95 1015.4
20260508053601 58 146 0.0 0.0 0.00 0.00 0.00 95 1015.8
20260508053059 58 146 0.0 0.0 0.00 0.00 0.00 95 1015.7
20260508052556 58 146 0.0 0.0 0.00 0.00 0.00 95 1015.9
20260508052053 58 146 0.0 0.0 0.00 0.00 0.00 95 1015.9
20260508051544 58 147 0.0 0.0 0.00 0.00 0.00 94 1016.0
20260508051039 58 158 0.0 0.0 0.00 0.00 0.00 94 1016.6
20260508050536 59 160 0.0 0.0 0.00 0.00 0.00 94 1016.4
20260508050033 58 146 0.0 0.0 0.00 0.00 0.00 94 1015.9
20260508045529 58 146 0.0 0.0 0.00 0.00 0.00 94 1016.0
20260508045027 58 146 0.0 0.0 0.00 0.00 0.00 94 1016.1
20260508044524 59 145 0.0 0.0 0.00 0.00 0.00 94 1015.7
20260508044020 59 146 0.0 0.0 0.00 0.00 0.00 93 1015.7
20260508043517 59 157 0.0 0.0 0.00 0.00 0.00 93 1016.2
20260508043014 59 160 0.0 0.0 0.00 0.00 0.00 93 1016.1
20260508042511 59 160 0.0 0.0 0.00 0.00 0.00 93 1015.9
20260508042008 59 160 0.0 0.0 0.00 0.00 0.00 92 1016.1
20260508041505 59 160 0.0 0.0 0.00 0.00 0.00 92 1016.2
20260508041001 59 160 0.0 0.0 0.00 0.00 0.00 92 1016.4
20260508040458 59 161 0.0 0.0 0.00 0.00 0.00 92 1016.5
20260508035956 59 116 0.0 0.0 0.00 0.00 0.00 92 1016.6
20260508035453 59 154 0.0 0.0 0.00 0.00 0.00 92 1016.5
20260508034949 59 147 0.0 0.0 0.00 0.00 0.00 92 1016.1
20260508034447 59 147 0.0 0.0 0.00 0.00 0.00 92 1016.2
20260508033943 59 136 0.0 0.0 0.00 0.00 0.00 92 1016.7
20260508033441 59 163 0.0 0.0 0.00 0.00 0.00 92 1016.5
20260508032938 59 154 0.0 0.0 0.00 0.00 0.00 91 1016.1
20260508032435 59 154 0.0 0.0 0.00 0.00 0.00 91 1015.8
20260508031931 60 154 0.0 0.0 0.00 0.00 0.00 90 1015.9
20260508031429 60 154 0.0 0.0 0.00 0.00 0.00 90 1015.7
20260508030924 60 154 0.0 0.0 0.00 0.00 0.00 90 1015.5
20260508030422 60 153 0.0 0.0 0.00 0.00 0.00 89 1015.5
20260508025919 60 164 0.0 0.0 0.00 0.00 0.00 89 1015.8
20260508025415 60 173 0.0 0.0 0.00 0.00 0.00 89 1015.4
20260508024913 60 125 0.0 0.0 0.00 0.00 0.00 89 1015.1
20260508024409 60 131 0.0 0.0 0.00 0.00 0.00 88 1015.0
20260508023906 60 134 0.0 0.0 0.00 0.00 0.00 88 1015.1
20260508023403 61 131 0.0 0.0 0.00 0.00 0.00 87 1015.2
20260508022859 60 131 0.0 0.0 0.00 0.00 0.00 88 1015.0
20260508022355 61 135 0.0 0.0 0.00 0.00 0.00 88 1014.8
20260508021852 61 134 0.0 0.0 0.00 0.00 0.00 88 1015.0
20260508021348 61 137 0.0 0.0 0.00 0.00 0.00 87 1015.2
20260508020844 61 139 0.0 0.0 0.00 0.00 0.00 87 1015.3
20260508020342 61 139 0.0 0.0 0.00 0.00 0.00 87 1015.3
20260508015839 61 135 0.0 0.0 0.00 0.00 0.00 87 1014.9
20260508015337 61 135 0.0 0.0 0.00 0.00 0.00 86 1015.0
20260508014833 62 135 0.0 0.0 0.00 0.00 0.00 86 1015.2
20260508014332 61 128 0.0 0.0 0.00 0.00 0.00 86 1015.2
20260508013831 61 142 0.0 0.0 0.00 0.00 0.00 86 1015.3
20260508013328 62 142 0.0 0.0 0.00 0.00 0.00 86 1015.4
20260508012826 62 142 0.0 0.0 0.00 0.00 0.00 86 1015.3
20260508012323 62 142 0.0 0.0 0.00 0.00 0.00 85 1015.0
20260508011820 62 142 0.0 0.0 0.00 0.00 0.00 85 1015.1
20260508011318 62 142 0.0 0.0 0.00 0.00 0.00 84 1015.4
20260508010815 63 142 0.0 0.0 0.00 0.00 0.00 85 1015.3
20260508010313 63 142 0.0 0.0 0.00 0.00 0.00 84 1015.2
20260508005809 63 142 0.0 0.0 0.00 0.00 0.00 83 1015.5
20260508005306 64 142 0.0 0.0 0.00 0.00 0.00 82 1015.5
20260508004802 64 142 0.0 0.0 0.00 0.00 0.00 82 1015.5
20260508004258 64 143 0.0 0.0 0.00 0.00 0.00 80 1015.6
20260508003754 64 143 1.0 2.0 0.00 0.00 0.00 80 1015.7
20260508003252 64 142 2.0 3.0 0.00 0.00 0.00 79 1015.6
20260508002748 65 138 0.0 0.0 0.00 0.00 0.00 79 1015.9
20260508002246 65 137 0.0 0.0 0.00 0.00 0.00 76 1016.2
20260508001742 65 153 0.0 0.0 0.00 0.00 0.00 77 1016.4
20260508001237 65 137 0.0 0.0 0.00 0.00 0.00 77 1016.0
20260508000734 65 127 0.0 0.0 0.00 0.00 0.00 76 1016.0
20260508000231 65 138 0.0 0.0 0.00 0.00 0.00 77 1016.1
20260507235727 65 138 2.0 2.0 0.00 0.00 0.00 76 1016.2
20260507235225 65 136 0.0 0.0 0.00 0.00 0.00 76 1016.0
20260507234722 65 138 0.0 0.0 0.00 0.00 0.00 75 1015.9
20260507234219 65 122 0.0 2.0 0.00 0.00 0.00 74 1016.1
20260507233715 65 108 2.0 3.0 0.00 0.00 0.00 74 1016.3
20260507233213 65 142 0.0 0.0 0.00 0.00 0.00 74 1016.2
20260507232710 65 143 1.0 2.0 0.00 0.00 0.00 74 1016.0
20260507232207 65 133 0.0 0.0 0.00 0.00 0.00 75 1016.1
20260507231704 65 133 0.0 2.0 0.00 0.00 0.00 74 1016.0
20260507231200 65 125 2.0 3.0 0.00 0.00 0.00 73 1016.1
20260507230657 65 121 1.0 2.0 0.00 0.00 0.00 75 1015.9
20260507230155 65 134 1.0 2.0 0.00 0.00 0.00 72 1016.3
20260507225654 66 122 0.0 0.0 0.00 0.00 0.00 73 1016.4
20260507225151 66 143 1.0 2.0 0.00 0.00 0.00 74 1016.2
20260507224646 66 156 0.0 0.0 0.00 0.00 0.00 74 1016.4
20260507224143 65 180 2.0 3.0 0.00 0.00 0.00 74 1016.5
20260507223639 66 33 5.0 5.0 0.00 0.00 0.00 72 1016.2
20260507223136 65 153 1.0 2.0 0.00 0.00 0.00 74 1015.9
20260507222633 65 134 2.0 2.0 0.00 0.00 0.00 73 1016.2
20260507222130 66 115 1.0 2.0 0.00 0.00 0.00 74 1016.3
20260507221626 66 145 1.0 2.0 0.00 0.00 0.00 73 1016.9
20260507221123 66 138 1.0 2.0 0.00 0.00 0.00 72 1016.9
20260507220620 66 83 3.0 3.0 0.00 0.00 0.00 71 1017.1
20260507220117 66 339 5.0 7.0 0.00 0.00 0.00 72 1017.0
20260507215613 66 52 2.0 3.0 0.00 0.00 0.00 72 1016.9
20260507215111 66 130 3.0 5.0 0.00 0.00 0.00 72 1016.7
20260507214608 66 74 3.0 5.0 0.00 0.00 0.00 72 1016.9
20260507214104 66 84 4.0 5.0 0.00 0.00 0.00 71 1016.7
20260507213601 65 144 3.0 3.0 0.00 0.00 0.00 72 1016.0
20260507213058 65 119 1.0 3.0 0.00 0.00 0.00 73 1016.0
20260507212554 65 138 0.0 2.0 0.00 0.00 0.00 73 1016.5
20260507212051 65 102 4.0 5.0 0.00 0.00 0.00 72 1016.6
20260507211547 66 336 5.0 7.0 0.00 0.00 0.00 73 1016.9
20260507211043 66 337 4.0 5.0 0.00 0.00 0.00 72 1017.5
20260507210541 66 152 7.0 10.0 0.00 0.00 0.00 71 1017.6
20260507210038 66 160 2.0 3.0 0.00 0.00 0.00 74 1017.2
20260507205534 65 99 5.0 7.0 0.00 0.00 0.00 72 1017.0
20260507205031 65 80 3.0 3.0 0.00 0.00 0.00 73 1017.6
20260507204527 65 123 3.0 5.0 0.00 0.00 0.00 72 1017.8
20260507204025 64 137 2.0 3.0 0.00 0.00 0.00 74 1017.3
20260507203523 64 145 3.0 5.0 0.00 0.00 0.00 75 1017.4
20260507203020 64 45 6.0 9.0 0.00 0.00 0.00 73 1017.6
20260507202515 64 324 6.0 7.0 0.00 0.00 0.00 74 1017.5
20260507202012 64 4 2.0 3.0 0.00 0.00 0.00 74 1017.2
20260507201508 64 29 6.0 7.0 0.00 0.00 0.00 73 1017.3
20260507201004 64 121 3.0 3.0 0.00 0.00 0.00 73 1017.5
20260507200459 64 84 4.0 5.0 0.00 0.00 0.00 72 1017.7
20260507195955 64 82 3.0 5.0 0.00 0.00 0.00 73 1017.3
20260507195453 65 123 6.0 9.0 0.00 0.00 0.00 72 1017.5
20260507194950 64 124 2.0 3.0 0.00 0.00 0.00 73 1017.6
20260507194447 64 137 1.0 2.0 0.00 0.00 0.00 74 1017.9
20260507193942 64 135 2.0 2.0 0.00 0.00 0.00 74 1017.8
20260507193440 64 56 1.0 2.0 0.00 0.00 0.00 74 1017.5
20260507192937 64 59 5.0 7.0 0.00 0.00 0.00 75 1017.5
20260507192432 64 64 2.0 3.0 0.00 0.00 0.00 75 1017.6
20260507191930 64 101 3.0 5.0 0.00 0.00 0.00 75 1018.0
20260507191426 64 280 4.0 7.0 0.00 0.00 0.00 73 1018.9
20260507190922 64 30 6.0 7.0 0.00 0.00 0.00 74 1018.2
20260507190420 64 117 0.0 0.0 0.00 0.00 0.00 77 1018.2
20260507185919 64 128 0.0 0.0 0.00 0.00 0.00 77 1018.2
20260507185416 63 123 0.0 0.0 0.00 0.00 0.00 77 1018.1
20260507184913 63 120 2.0 2.0 0.00 0.00 0.00 76 1018.0
20260507184410 63 133 0.0 2.0 0.00 0.00 0.00 73 1018.3
20260507183908 63 142 1.0 2.0 0.00 0.00 0.00 75 1018.7
20260507183404 63 140 0.0 2.0 0.00 0.00 0.00 76 1019.0
20260507182902 63 73 0.0 0.0 0.00 0.00 0.00 76 1018.7
20260507182357 63 120 2.0 3.0 0.00 0.00 0.00 75 1019.1
20260507181854 63 99 2.0 3.0 0.00 0.00 0.00 73 1019.0
20260507181350 63 154 6.0 9.0 0.00 0.00 0.00 73 1018.9
20260507180847 63 119 3.0 7.0 0.00 0.00 0.00 76 1017.5
20260507180344 63 126 2.0 3.0 0.00 0.00 0.00 76 1018.0
20260507175839 62 69 2.0 3.0 0.00 0.00 0.00 75 1018.5
20260507175337 62 124 2.0 3.0 0.00 0.00 0.00 76 1019.3
20260507174834 62 103 4.0 5.0 0.00 0.00 0.00 75 1018.7
20260507174331 62 101 3.0 3.0 0.00 0.00 0.00 75 1018.0
20260507173829 62 75 3.0 5.0 0.00 0.00 0.00 76 1019.0
20260507173326 62 349 5.0 7.0 0.00 0.00 0.00 76 1019.5
20260507172822 61 113 2.0 3.0 0.00 0.00 0.00 77 1019.0
20260507172319 61 126 2.0 3.0 0.00 0.00 0.00 77 1018.6
20260507171814 61 138 1.0 2.0 0.00 0.00 0.00 77 1018.2
20260507171312 61 53 4.0 5.0 0.00 0.00 0.00 76 1018.7
20260507170809 61 127 2.0 3.0 0.00 0.00 0.00 76 1019.4
20260507170305 61 195 2.0 3.0 0.00 0.00 0.00 76 1019.8
20260507165801 61 283 7.0 10.0 0.00 0.00 0.00 77 1020.1
20260507165257 61 60 4.0 5.0 0.00 0.00 0.00 76 1019.9
20260507164753 61 78 2.0 3.0 0.00 0.00 0.00 76 1019.5
20260507164251 61 204 4.0 5.0 0.00 0.00 0.00 76 1019.7
20260507163748 61 147 2.0 2.0 0.00 0.00 0.00 77 1019.1
20260507163245 61 334 7.0 9.0 0.00 0.00 0.00 76 1020.7
20260507162741 61 66 2.0 3.0 0.00 0.00 0.00 77 1019.6
20260507162237 61 105 2.0 3.0 0.00 0.00 0.00 76 1019.8
20260507161734 61 114 0.0 2.0 0.00 0.00 0.00 78 1020.1
20260507161231 60 143 1.0 2.0 0.00 0.00 0.00 77 1019.5
20260507160726 61 122 2.0 2.0 0.00 0.00 0.00 77 1019.6
20260507160223 60 129 0.0 2.0 0.00 0.00 0.00 78 1019.7
20260507155719 60 105 1.0 2.0 0.00 0.00 0.00 78 1019.2
20260507155215 60 135 0.0 2.0 0.00 0.00 0.00 78 1019.6
20260507154712 60 259 7.0 9.0 0.00 0.00 0.00 77 1019.6
20260507154210 60 74 5.0 7.0 0.00 0.00 0.00 78 1020.1
20260507153707 60 108 3.0 3.0 0.00 0.00 0.00 79 1019.8
20260507153203 60 87 5.0 7.0 0.00 0.00 0.00 78 1019.2
20260507152659 60 66 6.0 9.0 0.00 0.00 0.00 78 1019.6
20260507152155 59 58 3.0 3.0 0.00 0.00 0.00 79 1019.6
20260507151651 59 38 6.0 7.0 0.00 0.00 0.00 81 1019.3
20260507151148 59 61 3.0 5.0 0.00 0.00 0.00 81 1019.5
20260507150645 59 62 6.0 9.0 0.00 0.00 0.00 82 1018.9
20260507150142 58 50 4.0 7.0 0.00 0.00 0.00 83 1018.6
20260507145637 58 87 3.0 5.0 0.00 0.00 0.00 83 1018.7
20260507145135 58 60 6.0 10.0 0.00 0.00 0.00 82 1019.1
20260507144631 58 66 5.0 7.0 0.00 0.00 0.00 83 1019.6
20260507144130 58 84 4.0 7.0 0.00 0.00 0.00 83 1020.0
20260507143626 58 128 3.0 5.0 0.00 0.00 0.00 83 1019.5
20260507143123 58 95 4.0 7.0 0.00 0.00 0.00 83 1019.4
20260507142618 58 355 6.0 9.0 0.00 0.00 0.00 83 1019.4
20260507142116 58 183 4.0 5.0 0.00 0.00 0.00 83 1019.2
20260507141612 58 173 6.0 7.0 0.00 0.00 0.00 83 1019.1
20260507141109 58 111 6.0 10.0 0.00 0.00 0.00 83 1019.2
20260507140605 58 120 2.0 3.0 0.00 0.00 0.00 84 1018.4
20260507135559 58 42 9.0 14.0 0.00 0.00 0.00 82 1019.1